Home   Weather   Fort Liard   Past weeks

Flag for Canada Past Weather in Fort Liard, Northwest Territories, Canada — Yesterday and Last 2 Weeks

Now
23 °F

Cold.


Feels Like: 23 °F
Forecast: 26 / 43 °F
Wind: 2 mph from Southeast

Location: Lindberg Landing

Current Time: Oct 1, 2016 at 2:51:13 AM

Latest Report: Oct 1, 2016 at 2:00 AM


Visibility: N/A

Pressure: 30.51 "Hg

Humidity: 97%

Dew Point: 23 °F

Location of Fort LiardLocation

Past Weather in Fort Liard — Graph

°F

Fort Liard Temperature Yesterday

Maximum temperature yesterday: 44 °F (at 5:00 PM)
Minimum temperature yesterday: 26 °F (at 11:00 PM)
Average temperature yesterday: 37 °F

High & Low Weather Summary for the Past Weeks

 TemperatureHumidityPressure
High75 °F (Sep 22, 4:00 PM)100% (Sep 16, 1:00 AM)30.61 "Hg (Sep 16, 1:00 AM)
Low23 °F (Sep 29, 8:00 AM)19% (Sep 22, 3:00 PM)29.31 "Hg (Sep 17, 5:00 AM)
Average46 °F75%29.85 "Hg
* Reported Sep 16 1:00 AM — Oct 1 1:00 AM, Fort Liard, Weather by CustomWeather, © 2016

Note: Actual official high and low records may vary slightly from our data, if they occured in-between our weather recording intervals... More about our weather records

Advertising

Fort Liard Weather History for the Previous 24 Hours

Scroll right to see more
 ConditionsComfort  
Time TempWeatherWind HumidityBarometerVisibility
1:00 AM
Sat, Oct 1
24 °FCold.1 mph96%30.51 "HgN/A
12:00 AM25 °FChilly.1 mph96%30.52 "HgN/A
11:00 PM
Fri, Sep 30
26 °FChilly.1 mph94%30.53 "HgN/A
10:00 PM27 °FChilly.1 mph92%30.53 "HgN/A
9:00 PM29 °FChilly.No wind88%30.53 "HgN/A
8:00 PM33 °FChilly.1 mph79%30.53 "HgN/A
7:00 PM42 °FQuite cool.1 mph60%30.53 "HgN/A
6:00 PM44 °FQuite cool.5 mph43%30.53 "HgN/A
5:00 PM44 °FQuite cool.5 mph42%30.54 "HgN/A
4:00 PM44 °FQuite cool.1 mph47%30.55 "HgN/A
3:00 PM42 °FQuite cool.2 mph52%30.57 "HgN/A
2:00 PM42 °FQuite cool.2 mph55%30.58 "HgN/A
1:00 PM42 °FQuite cool.2 mph57%30.59 "HgN/A
12:00 PM39 °FChilly.2 mph62%30.60 "HgN/A
11:00 AM37 °FChilly.2 mph68%30.61 "HgN/A
10:00 AM30 °FChilly.No wind85%30.61 "HgN/A
9:00 AM28 °FChilly.1 mph92%30.60 "HgN/A
8:00 AM33 °FChilly.3 mph78%30.58 "HgN/A
7:00 AM36 °FChilly.3 mph71%30.57 "HgN/A
6:00 AM37 °FChilly.6 mph65%30.55 "HgN/A
5:00 AM38 °FChilly.8 mph59%30.54 "HgN/A
4:00 AM39 °FChilly.5 mph66%30.51 "HgN/A
3:00 AM39 °FChilly.3 mph70%30.50 "HgN/A
2:00 AM39 °FChilly.7 mph71%30.48 "HgN/A
Weather by CustomWeather, © 2016

See weather overviewHow to use our weather pages